Hourly Data Report for September 05, 2017

All times are specified in Local Standard Time (LST). Add 1 hour to adjust for Daylight Saving Time where and when it is observed.

FISHER BRANCH (AUT)
MANITOBA

51°05'00.100" N
97°33'16.200" W
253.00 m
50309J6
71442
WSZ

Download Data

Hourly Data (September 2017)
Hourly Data Report for September 5, 2017
Temp Definition
°C
Dew Point Temp Definition
°C
Rel Hum Definition
%
Wind Dir Definition
10's deg

Wind Spd Definition
km/h
Visibility Definition
km
Stn Press Definition
kPa
Hmdx Definition


Wind Chill Definition


Weather Definition


TIME
00:00 11.4 3.7 59 31 9   98.64     LegendNANA
01:00 9.5 5.5 76 31 8   98.71     LegendNANA
02:00 8.8 5.3 79 31 8   98.75     LegendNANA
03:00 7.0 4.2 82 30 9   98.79     LegendNANA
04:00 6.6 4.7 88 30 10   98.83     LegendNANA
05:00 6.5 5.1 91 29 11   98.86     LegendNANA
06:00 7.3 6.1 92 30 9   98.92     LegendNANA
07:00 9.3 7.3 87 31 12   98.94     LegendNANA
08:00 11.8 7.9 77 31 20   98.96     LegendNANA
09:00 14.2 8.4 68 32 18   99.01     LegendNANA
10:00 14.4 6.2 58 34 24   99.04     LegendNANA
11:00 16.2 6.5 52 32 24   99.06     LegendNANA
12:00 16.8 5.2 46 34 26   99.06     LegendNANA
13:00 16.7 4.4 44 34 26   99.07     LegendNANA
14:00 17.0 2.5 38 34 26   99.07     LegendNANA
15:00 17.2 4.1 42 35 24   99.07     LegendNANA
16:00 16.8 2.9 40 35 21   99.07     LegendNANA
17:00 16.3 3.2 41 34 20   99.08     LegendNANA
18:00 14.9 0.9 38 35 11   99.06     LegendNANA
19:00 11.9 2.8 53 34 7   99.06     LegendNANA
20:00 7.6 2.6 70 32 6   99.08     LegendNANA
21:00 6.6 3.3 79 30 6   99.10     LegendNANA
22:00 6.9 4.1 82 29 8   99.09     LegendNANA
23:00 4.6 2.7 87 27 2   99.08     LegendNANA

Notes on Data Quality.

Legend

  • E = Estimated
  • M = Missing
  • NA = Not Available
  • ‡ = Partner data that is not subject to review by the National Climate Archives
Date modified: